Home   Weather   Atlanta   Past weeks
Flag for USA

Past Weather in Atlanta, Georgia, USA — Yesterday and Last 2 Weeks

Now
74 °F

Scattered clouds.


Feels Like: 76 °F
Forecast: 73 / 41 °F
Wind: 8 mph from Southwest

Location: Fulton County Airport-Brown Field

Current Time: Mar 24, 2019 at 3:34:27 pm

Latest Report: Mar 24, 2019 at 2:53 pm


Visibility: 10 mi

Pressure: 30.18 "Hg

Humidity: 22%

Dew Point: 33 °F

Location of AtlantaLocation

Past Weather in Atlanta — Graph

°F

Atlanta Temperature Yesterday

Maximum temperature yesterday: 71 °F (at 4:53 pm)
Minimum temperature yesterday: 37 °F (at 7:53 am)
Average temperature yesterday: 56 °F

High & Low Weather Summary for the Past Weeks

 TemperatureHumidityPressure
High75 °F (Mar 14, 4:53 pm)100% (Mar 10, 8:53 am)30.41 "Hg (Mar 10, 8:53 am)
Low31 °F (Mar 20, 7:53 am)14% (Mar 23, 5:53 pm)29.90 "Hg (Mar 21, 6:53 pm)
Average55 °F60%30.16 "Hg
* Reported Mar 9 12:23 pm — Mar 24 1:53 pm, Atlanta. Weather by CustomWeather, © 2019

Note: Actual official high and low records may vary slightly from our data, if they occured in-between our weather recording intervals... More about our weather records

Advertising

Atlanta Weather History for the Previous 24 Hours

Scroll right to see more
 ConditionsComfort  
Time TempWeatherWind HumidityBarometerVisibility
1:53 pm
Sun, Mar 24
72 °FScattered clouds.12 mph23%30.22 "Hg10 mi
12:53 pm71 °FSunny.13 mph26%30.24 "Hg10 mi
11:53 am68 °FSunny.8 mph32%30.27 "Hg10 mi
10:53 am61 °FSunny.3 mph46%30.28 "Hg10 mi
9:53 am53 °FSunny.3 mph64%30.30 "Hg10 mi
8:53 am44 °FSunny.No wind85%30.28 "Hg10 mi
7:53 am37 °FSunny.No wind93%30.27 "Hg10 mi
6:53 am38 °FClear.No wind93%30.25 "Hg10 mi
5:53 am39 °FClear.No wind89%30.24 "Hg10 mi
4:53 am38 °FClear.No wind93%30.22 "Hg10 mi
3:53 am42 °FClear.No wind79%30.24 "Hg10 mi
2:53 am44 °FClear.No wind71%30.24 "Hg10 mi
1:53 am44 °FClear.No wind76%30.24 "Hg10 mi
12:53 am47 °FClear.No wind61%30.25 "Hg10 mi
11:53 pm
Sat, Mar 23
48 °FClear.3 mph71%30.25 "Hg10 mi
10:53 pm51 °FClear.No wind52%30.25 "Hg10 mi
9:53 pm54 °FClear.No wind40%30.24 "Hg10 mi
8:53 pm61 °FClear.No wind27%30.22 "Hg10 mi
7:53 pm64 °FClear.No wind22%30.20 "Hg10 mi
6:53 pm69 °FSunny.5 mph17%30.19 "Hg10 mi
5:53 pm71 °FSunny.3 mph14%30.18 "Hg10 mi
4:53 pm71 °FSunny.9 mph16%30.18 "Hg10 mi
3:53 pm69 °FSunny.5 mph17%30.19 "Hg10 mi
Weather by CustomWeather, © 2019

See weather overview